Regional Weather Roundup
Issued by NWS

Home | Current Version | Previous Version | Text Only | Print | Product List | Glossary On
Versions: 1 2 3 4 5 6 7 8 9 10 11 12 13 14 15 16 17 18 19 20 21 22 23 24 25 26 27 28 29 30 31 32 33 34 35 36 37 38 39 40 41 42 43 44 45 46 47 48 49 50
000
ASUS43 KDTX 241401
RWRMI
MICHIGAN HOURLY REGIONAL WEATHER ROUNDUP
NATIONAL WEATHER SERVICE DETROIT/PONTIAC MI
1000 AM EDT MON SEP 24 2018

NOTE: "FAIR" INDICATES FEW OR NO CLOUDS BELOW 12,000 FEET WITH NO
SIGNIFICANT WEATHER AND/OR OBSTRUCTION TO VISIBILITY.

MIZ047>049-052>055-059>063-066>070-074>076-081>083-241500-
SOUTHEAST LOWER MICHIGAN

CITY           SKY/WX    TMP DP  RH WIND       PRES   REMARKS
ADRIAN         FAIR      59  57  93 E7        30.17F
ANN ARBOR      PTSUNNY   61  59  93 NE7       30.18F
BAD AXE        CLOUDY    60  56  86 SE12      30.26S
CARO           CLOUDY    57  55  91 E8        30.24S
DETROIT CITY   CLOUDY    63  59  87 SE12      30.21F
DETROIT        CLOUDY    64  58  80 E8        30.19F
FLINT          CLOUDY    58  55  90 E8        30.21S
GROSSE ILE     CLOUDY    63  60  91 E6        30.19R
HILLSDALE      FAIR      61  57  88 E8        30.15F
HOWELL         CLOUDY    61  59  94 SE14      30.19F

CITY           SKY/WX    TMP DP  RH WIND       PRES   REMARKS
JACKSON        CLOUDY    58  58 100 NE6       30.17F
LAMBERTVILLE   FAIR      63  60  90 E3        30.15F
LANSING        CLOUDY    58  56  93 SE6       30.19F
LAPEER         CLOUDY    57  56  94 E6        30.23F
MASON          CLOUDY    59  57  92 E3        30.18F FOG
PONTIAC        CLOUDY    60  57  89 E8        30.20S
PORT HOPE        N/A     61  56  83 SE18G28   30.26S
PORT HURON     CLOUDY    57  54  88 E7        30.25S
TRI CITIES     FAIR      60  55  83 E14       30.24S
MIDLAND        FAIR      61  54  79 E10       30.23F
TROY           CLOUDY    61  56  83 NE6       30.23F
SAGINAW HB     PTSUNNY   57  54  88 E7        30.23S
$$
MIZ043>046-050>051-056>058-064>065-071>073-077>080-241500-
SOUTHWEST LOWER MICHIGAN

CITY           SKY/WX    TMP DP  RH WIND       PRES   REMARKS
BATTLE CREEK   FAIR      60  55  83 E8        30.16F
BENTON HARBOR  FAIR      63  56  78 E13       30.10F
BIG RAPIDS     CLOUDY    58  55  92 SE7       30.20F
COLDWATER      FAIR      63  59  88 E9        30.13F
HOLLAND        FAIR      58  53  84 E9        30.15F
GRAND RAPIDS   FOG       55  55 100 E12       30.17F VSB 1
IONIA          CLOUDY    55  53  93 E9        30.18F
KALAMAZOO      FAIR      61  55  81 E6        30.15F
LUDINGTON      FAIR      58  54  85 SE14      30.17F
MARSHALL       CLOUDY    59  56  91 E6        30.16S FOG
MOUNT PLEASANT FAIR      58  57  94 E7        30.21F
MUSKEGON       PTSUNNY   58  53  84 E9        30.16S
SOUTH HAVEN    FAIR      60  56  85 E7        30.12F
$$
MIZ016>042-241500-
NORTHERN LOWER MICHIGAN

CITY           SKY/WX    TMP DP  RH WIND       PRES   REMARKS
ALPENA         CLOUDY    59  53  80 E13G22    30.29F
BEAVER ISLAND  FAIR      57  51  81 SE14G21   30.23F
BELLAIRE       FAIR      59  52  77 E7        30.22F
CADILLAC       CLOUDY    57  54  89 SE9       30.20F
CHARLEVOIX     FAIR      58  52  79 E12       30.25F
FRANKFORT      FAIR      58  53  81 SE8       30.19S
GAYLORD        CLOUDY    55  53  93 SE13G20   30.25F
HARBOR SPRINGS CLOUDY    56  53  89 E9        30.24F
HOUGHTON LAKE  CLOUDY    58  53  84 E10       30.25S
MANISTEE       CLOUDY    56  54  93 E7        30.18
OSCODA         CLOUDY    61  55  80 SE14      30.27S
PELLSTON       CLOUDY    56  52  86 SE12G22   30.26F
ROGERS CITY    CLOUDY    58  53  82 SE12      30.29S
TRAVERSE CITY  CLOUDY    61  54  77 SE5       30.20F
$$
MIZ007>008-015-241500-
EASTERN UPPER MICHIGAN

CITY           SKY/WX    TMP DP  RH WIND       PRES   REMARKS
KINROSS        CLOUDY    51  49  92 SE15      30.27F
MACKINAC ISLAN CLOUDY    56  52  89 E10G21    30.25F
NEWBERRY       CLOUDY    52  51  97 SE10G17   30.22F
S. S. MARIE    CLOUDY    46  44  93 E9G20     30.28F
MUNISING         N/A     58  51  78 S10G22    30.15F
$$
MIZ004>006-011>014-085-241500-
CENTRAL UPPER MICHIGAN

CITY           SKY/WX    TMP DP  RH WIND       PRES   REMARKS
MANISTIQUE     CLOUDY    57  51  82 SE14G22   30.20F
ESCANABA       CLOUDY    61  54  77 SE12G20   30.18F
MENOMINEE      CLOUDY    60  55  83 S13       30.16F
SAWYER-GWINN   CLOUDY    55  52  88 S17G26    30.14F
$$
MIZ001>003-009>011-084-241500-
WESTERN UPPER MICHIGAN

CITY           SKY/WX    TMP DP  RH WIND       PRES   REMARKS
IRON MOUNTAIN  CLOUDY    56  53  90 S10       30.14F
HOUGHTON       CLOUDY    56  53  90 E8        30.07F
COPPER HARBOR    N/A     54  50  86 S18G38    30.06F
IRONWOOD       FAIR      59  52  77 SE12G17   29.99F
$$

ABBREVIATIONS USED IN REMARKS
   TC - TEMPERATURE IN CELSIUS
  WCI - WIND CHILL INDEX
   HX - HEAT INDEX
  VSB - VISIBILITY




USA.gov is the U.S. government's official web portal to all federal, state and local government web resources and services.